ORBVIEW 2 (SEASTAR)

Last updated on Sat Dec 13 2025 00:02:15 GMT+0000 (Coordinated Universal Time)

1 24883U 97037A 25346.14854045 .00000522 00000+0 19792-3 0 9991 2 24883 98.8457 143.2082 0001682 343.7218 16.3912 14.35416531495916
UTC large
Height (km)
Speed (km/s)
/
Latitude / Longitude
Inclination (degrees)
Orbital Period (minutes)
Azimuth
Elevation
Range (km)
Doppler Factor

Next 0 passes for location: London (51.5072 / 0.1276)

Sorry there are no passes over London.